[[{"header":{"parameterUnit":"m.s-1","parameterCategory":1,"la1":30.2991,"la2":30.254,"lo1":-89.0895,"lo2":-89.0444,"dy":0.0017,"dx":0.0017,"nx":28,"ny":28,"refTime":"2024-04-25T03:00:00:Z","depth":0,"parameterNumber":2,"parameterNumberName":"U-component_of_WINDS"},"data":[0,0,0,0,0,0,0,0,0,0,0,0,0,0,0,0,0,0,0,0,0,0,0,0,0,0,0,0,0,0,0,0,0,0,0,0,0,0,0,0,0,0,0,0,0,0,0,0,0,0,0,0,0,0,0,0,0,0,0.601,0.601,0,0.6011,0.6011,0.6011,0.5959,0.5957,0.5956,0.5955,0.5959,0.596,0.5961,0,0,0,0,0,0,0,0,0,0,0,0,0,0.5966,0.5967,0.601,0.601,0.601,0.6011,0.6011,0.6011,0.5959,0.5957,0.5956,0.5954,0.5958,0.596,0.5961,0,0,0,0,0,0,0,0,0,0,0,0,0,0.5978,0.5967,0.601,0.5984,0.5982,0.6011,0.6011,0.6011,0.5959,0.5957,0.5955,0.5953,0.5958,0.596,0.5962,0.6017,0,0,0.5968,0.5969,0,0,0,0,0,0,0,0,0.5977,0.598,0.5988,0.5986,0.5984,0.5983,0.5997,0.6013,0.596,0.5968,0.5955,0.5952,0.5969,0.597,0.5974,0.6017,0.6017,0.5968,0.597,0.5971,0.5971,0,0,0,0,0,0,0,0.5977,0.5979,0.6011,0.5988,0.5986,0.5973,0.5973,0.6,0.598,0.5967,0.5963,0.5964,0.5967,0.5973,0.5974,0.6017,0.5968,0.597,0.5971,0.5972,0.6103,0.6105,0,0,0,0,0,0,0.5979,0.5979,0.6011,0.6011,0.5975,0.5976,0.5975,0.5985,0.598,0.5977,0.5966,0.5962,0.597,0.5972,0.5974,0.6037,0.5971,0.5972,0.5974,0.6101,0.6104,0.6106,0,0,0,0,0,0,0.5978,0.5982,0.6011,0.5994,0.5996,0.5979,0.5991,0.5986,0.5992,0.5979,0.5975,0.5975,0.5968,0.5971,0.6006,0.6037,0.5973,0.5975,0.6098,0.6102,0.6105,0.6164,0,0,0,0,0,0,0.5977,0.5982,0.6003,0.5995,0.5998,0.6042,0.5992,0.5988,0.5995,0.599,0.5986,0.5984,0.5967,0.6003,0.6008,0.6038,0.5977,0.6096,0.61,0.6104,0.616,0.6169,0.6178,0,0,0,0,0,0.5976,0.602,0.6004,0.6008,0.6022,0.6044,0.6046,0.6025,0.5998,0.6018,0.601,0.5984,0.6032,0.6007,0.6012,0.6044,0.6094,0.6099,0.6104,0.6155,0.6167,0.6177,0,0,0,0,0,0,0.6034,0.6019,0.6001,0.6044,0.6045,0.6035,0.606,0.6038,0.6048,0.6043,0.6017,0.6017,0.6056,0.6053,0.6025,0.6096,0.6058,0.6065,0.6096,0.6107,0.6116,0.6116,0.5979,0,0,0,0,0,0.6051,0.6069,0.6056,0.6095,0.6096,0.6078,0.6087,0.607,0.6072,0.6072,0.6066,0.6069,0.6085,0.6096,0.611,0.6159,0.6157,0.6183,0.6192,0.6199,0.6205,0.623,0.6241,0.6122,0.6122,0.6122,0,0,0.6088,0.6082,0.6096,0.6106,0.6106,0.6125,0.6079,0.6102,0.6117,0.6076,0.6108,0.6104,0.6105,0.6147,0.6165,0.6146,0.6237,0.6206,0.6212,0.6214,0.6236,0.6248,0.6258,0.6126,0.6125,0.6125,0,0,0.6166,0.6163,0.6195,0.6195,0.6194,0.6181,0.6189,0.6182,0.6177,0.6208,0.6178,0.6195,0.6223,0.6225,0.6229,0.6306,0.6283,0.6311,0.6359,0.6383,0.6393,0.6401,0.6428,0.6438,0.6317,0.6317,0.6317,0,0.6212,0.6239,0.6214,0.6239,0.6244,0.6207,0.6239,0.6241,0.6245,0.625,0.6228,0.6261,0.626,0.6301,0.632,0.6325,0.6333,0.6312,0.6393,0.6401,0.6408,0.6434,0.6444,0.6321,0.632,0.632,0.632,0,0.6296,0.6316,0.6342,0.6345,0.6354,0.6382,0.6362,0.6374,0.6356,0.6346,0.6378,0.6375,0.6387,0.6395,0.6379,0.6434,0.6422,0.6397,0.6359,0.6424,0.6447,0.6456,0.6326,0.6324,0.6323,0.6323,0,0,0.6411,0.6399,0.6409,0.6409,0.6405,0.642,0.6446,0.6457,0.6467,0.6471,0.6493,0.6517,0.6493,0.6498,0.6482,0.6504,0.6564,0.6476,0.6475,0.6492,0.6624,0.6643,0.6654,0.6548,0.655,0.6551,0.6624,0,0.6485,0.6529,0.6507,0.6554,0.6571,0.6535,0.6558,0.6558,0.6549,0.6563,0.6554,0.6571,0.6539,0.6541,0.6561,0.6552,0.659,0.6547,0.6568,0.657,0.6569,0.6667,0.6687,0.6755,0.6633,0.6634,0.6635,0,0.6578,0.6584,0.6633,0.6623,0.663,0.6651,0.6658,0.6672,0.6671,0.6663,0.6669,0.6647,0.6673,0.6634,0.667,0.6641,0.6648,0.6645,0.6647,0.6649,0.6606,0.667,0.6777,0.6787,0.665,0.6649,0.6647,0,0.6657,0.6677,0.6708,0.671,0.67,0.6716,0.6713,0.671,0.6717,0.6724,0.6728,0.6738,0.6744,0.6753,0.6734,0.6708,0.6772,0.6732,0.6766,0.6767,0.6781,0.6781,0.689,0.6787,0.6787,0.6786,0.6786,0,0.6742,0.6773,0.6743,0.6762,0.6795,0.6769,0.6803,0.6797,0.6794,0.6812,0.6782,0.6799,0.6774,0.6789,0.6774,0.6805,0.6808,0.6803,0.6799,0.6805,0.6806,0.681,0.6805,0.6789,0.6788,0.6788,0.6787,0,0.6835,0.6816,0.6848,0.6836,0.6833,0.6858,0.6848,0.6866,0.6854,0.6876,0.688,0.6863,0.6878,0.6861,0.6876,0.6866,0.6908,0.6897,0.6908,0.6904,0.6939,0.6936,0.7055,0.7069,0.6957,0.6958,0.6959,0,0.6891,0.6914,0.6903,0.6912,0.691,0.6925,0.6932,0.6907,0.6916,0.6916,0.6933,0.6946,0.6955,0.6982,0.6971,0.6983,0.6971,0.7012,0.6973,0.6979,0.6972,0.697,0.6972,0.702,0.7022,0.7023,0.7024,0,0.6992,0.6981,0.6991,0.6998,0.7006,0.7011,0.7013,0.7022,0.6997,0.7008,0.7023,0.703,0.7044,0.7057,0.7065,0.7062,0.7039,0.7036,0.7044,0.7051,0.7056,0.7053,0.6929,0.7034,0.7033,0.7032,0.7031,0.7031,0.7068,0.7085,0.708,0.7093,0.7091,0.7094,0.7109,0.7099,0.711,0.7119,0.7104,0.7123,0.7121,0.7128,0.7129,0.7143,0.7126,0.7138,0.7141,0.7144,0.7149,0.7054,0.7145,0.7144,0.7144,0.7144,0.7144,0,0.7166,0.7161,0.7172,0.7175,0.7185,0.716,0.7161,0.7171,0.7188,0.7187,0.7196,0.7213,0.7225,0.7215,0.7225,0.7239,0.7228,0.7242,0.7241,0.7241,0.7165,0.7156,0.7251,0.7251,0.7251,0.7251,0.7251,0.7251,0.7219,0.7247,0.7235,0.7263,0.7257,0.7274,0.7277,0.7279,0.7278,0.7298,0.7308,0.73,0.7296,0.7305,0.7315,0.7312,0.7317,0.7335,0.7328,0.7257,0.7246,0.7236,0.7228,0.7336,0.7336,0.7403,0.7403,0.7404]},{"header":{"parameterUnit":"m.s-1","parameterCategory":1,"la1":30.2991,"la2":30.254,"lo1":-89.0895,"lo2":-89.0444,"dy":0.0017,"dx":0.0017,"nx":28,"ny":28,"refTime":"2024-04-25T03:00:00:Z","depth":0,"parameterNumber":3,"parameterNumberName":"V-component_of_WINDS"},"data":[0,0,0,0,0,0,0,0,0,0,0,0,0,0,0,0,0,0,0,0,0,0,0,0,0,0,0,0,0,0,0,0,0,0,0,0,0,0,0,0,0,0,0,0,0,0,0,0,0,0,0,0,0,0,0,0,0,0,-0.7259,-0.7259,0,-0.7187,-0.7186,-0.7185,-0.7153,-0.7153,-0.7153,-0.7153,-0.7076,-0.7074,-0.7071,0,0,0,0,0,0,0,0,0,0,0,0,0,-0.7367,-0.7365,-0.726,-0.7259,-0.7258,-0.7187,-0.7186,-0.7185,-0.7153,-0.7153,-0.7153,-0.7153,-0.7076,-0.7074,-0.7071,0,0,0,0,0,0,0,0,0,0,0,0,0,-0.731,-0.7364,-0.726,-0.7233,-0.723,-0.7187,-0.7186,-0.7185,-0.7152,-0.7153,-0.7153,-0.7153,-0.7077,-0.7074,-0.7071,-0.7049,0,0,-0.7061,-0.706,0,0,0,0,0,0,0,0,-0.7313,-0.7306,-0.7238,-0.7235,-0.7231,-0.7179,-0.7196,-0.7139,-0.7152,-0.7182,-0.7153,-0.7153,-0.711,-0.7104,-0.709,-0.7045,-0.7042,-0.7061,-0.7059,-0.7058,-0.7057,0,0,0,0,0,0,0,-0.7317,-0.7309,-0.7231,-0.7237,-0.7233,-0.7224,-0.7216,-0.7185,-0.7146,-0.7179,-0.7177,-0.7169,-0.7108,-0.7093,-0.7088,-0.704,-0.7061,-0.7058,-0.7056,-0.7055,-0.6974,-0.6973,0,0,0,0,0,0,-0.7326,-0.7312,-0.7233,-0.7229,-0.7273,-0.7222,-0.7213,-0.7196,-0.7146,-0.7139,-0.7169,-0.7167,-0.7098,-0.7092,-0.7085,-0.7055,-0.7058,-0.7055,-0.7053,-0.6974,-0.6973,-0.6973,0,0,0,0,0,0,-0.7328,-0.7319,-0.7236,-0.727,-0.7258,-0.722,-0.7201,-0.7194,-0.7179,-0.7138,-0.7131,-0.7161,-0.7098,-0.7089,-0.7058,-0.7052,-0.7053,-0.705,-0.6974,-0.6974,-0.6973,-0.6997,0,0,0,0,0,0,-0.7331,-0.732,-0.7312,-0.727,-0.7257,-0.7211,-0.72,-0.7193,-0.7174,-0.7172,-0.7129,-0.7122,-0.7098,-0.7063,-0.7055,-0.7048,-0.7048,-0.6974,-0.6974,-0.6973,-0.6996,-0.6997,-0.6998,0,0,0,0,0,-0.7335,-0.7321,-0.7312,-0.7302,-0.7246,-0.7211,-0.7203,-0.7177,-0.7174,-0.7165,-0.7138,-0.7123,-0.7055,-0.706,-0.7051,-0.7043,-0.6975,-0.6974,-0.6974,-0.6996,-0.6997,-0.6998,0,0,0,0,0,0,-0.7362,-0.7315,-0.7304,-0.7275,-0.7248,-0.7205,-0.7193,-0.7179,-0.715,-0.7149,-0.7117,-0.7107,-0.7078,-0.7057,-0.7064,-0.7018,-0.7013,-0.7011,-0.7033,-0.7034,-0.7035,-0.704,-0.7045,0,0,0,0,0,-0.7364,-0.7341,-0.73,-0.7279,-0.7266,-0.7232,-0.7216,-0.7198,-0.7167,-0.7155,-0.7126,-0.7096,-0.7068,-0.705,-0.7021,-0.6993,-0.6983,-0.6983,-0.6984,-0.6985,-0.6983,-0.6966,-0.6966,-0.6971,-0.6971,-0.6971,0,0,-0.7369,-0.734,-0.7327,-0.7284,-0.726,-0.7235,-0.7222,-0.7197,-0.7178,-0.7151,-0.7119,-0.7098,-0.7062,-0.7032,-0.7017,-0.7014,-0.6979,-0.6984,-0.6985,-0.6982,-0.6965,-0.6965,-0.6964,-0.6971,-0.6971,-0.6971,0,0,-0.7365,-0.7342,-0.7321,-0.7298,-0.7263,-0.724,-0.7236,-0.7196,-0.7181,-0.7149,-0.7128,-0.7105,-0.7057,-0.7032,-0.7014,-0.7002,-0.6986,-0.6993,-0.6997,-0.6981,-0.6981,-0.698,-0.6976,-0.6974,-0.6991,-0.6992,-0.6992,0,-0.7375,-0.7338,-0.7312,-0.7288,-0.7269,-0.7245,-0.7223,-0.7202,-0.7159,-0.7146,-0.7143,-0.7082,-0.7056,-0.702,-0.7018,-0.7003,-0.6996,-0.6998,-0.6983,-0.6982,-0.6982,-0.6977,-0.6975,-0.6993,-0.6992,-0.6992,-0.6992,0,-0.7352,-0.7327,-0.7315,-0.7275,-0.7255,-0.7232,-0.7202,-0.7184,-0.7169,-0.7147,-0.7115,-0.7083,-0.7048,-0.7038,-0.7022,-0.7,-0.6999,-0.699,-0.6984,-0.6982,-0.6977,-0.6975,-0.6994,-0.6994,-0.6993,-0.6993,0,0,-0.7362,-0.7309,-0.7305,-0.7287,-0.7246,-0.7226,-0.7202,-0.7169,-0.7154,-0.7126,-0.7104,-0.7065,-0.7057,-0.7035,-0.7016,-0.7002,-0.6995,-0.6995,-0.6994,-0.6996,-0.6968,-0.6975,-0.6973,-0.6985,-0.6984,-0.6984,-0.6971,0,-0.7352,-0.731,-0.7286,-0.7253,-0.7229,-0.7206,-0.7185,-0.7157,-0.7136,-0.7112,-0.7088,-0.7061,-0.7052,-0.7039,-0.7025,-0.6999,-0.6988,-0.6999,-0.6964,-0.6963,-0.6973,-0.697,-0.6977,-0.6966,-0.6969,-0.6968,-0.6968,0,-0.7335,-0.7308,-0.7273,-0.7236,-0.7225,-0.7207,-0.7175,-0.7153,-0.7121,-0.7106,-0.7083,-0.7065,-0.7038,-0.7035,-0.6997,-0.7005,-0.6989,-0.6974,-0.6973,-0.6968,-0.6965,-0.6965,-0.6962,-0.696,-0.6965,-0.6965,-0.6965,0,-0.7345,-0.73,-0.7274,-0.7259,-0.7215,-0.7202,-0.7183,-0.7152,-0.7134,-0.7105,-0.7093,-0.7062,-0.7044,-0.702,-0.6993,-0.6993,-0.6958,-0.6952,-0.6944,-0.6945,-0.6937,-0.6938,-0.6932,-0.6928,-0.6928,-0.6928,-0.6928,0,-0.7337,-0.7316,-0.7278,-0.7261,-0.7237,-0.7209,-0.7186,-0.7165,-0.7138,-0.7116,-0.7094,-0.7074,-0.7039,-0.7015,-0.6994,-0.6965,-0.6958,-0.6945,-0.6939,-0.6946,-0.6948,-0.6935,-0.6935,-0.6928,-0.6928,-0.6928,-0.6928,0,-0.7344,-0.7317,-0.7287,-0.7248,-0.7238,-0.7222,-0.7188,-0.7171,-0.7149,-0.7122,-0.7114,-0.7079,-0.705,-0.7021,-0.698,-0.6966,-0.6938,-0.6931,-0.6949,-0.6946,-0.6939,-0.694,-0.6924,-0.692,-0.692,-0.692,-0.692,0,-0.734,-0.7324,-0.7284,-0.7268,-0.725,-0.7225,-0.7207,-0.7179,-0.716,-0.7124,-0.711,-0.7079,-0.7053,-0.7006,-0.6977,-0.6946,-0.6937,-0.6934,-0.6932,-0.694,-0.6937,-0.6938,-0.6936,-0.6934,-0.6935,-0.6935,-0.6935,0,-0.7335,-0.7323,-0.7298,-0.7269,-0.7248,-0.7223,-0.7197,-0.7185,-0.7152,-0.7132,-0.7102,-0.7082,-0.7041,-0.701,-0.6976,-0.6955,-0.6939,-0.6936,-0.6932,-0.6939,-0.695,-0.6944,-0.695,-0.6936,-0.6936,-0.6936,-0.6936,-0.6936,-0.7336,-0.7321,-0.729,-0.7263,-0.7241,-0.7218,-0.72,-0.7176,-0.7151,-0.7117,-0.7101,-0.7071,-0.704,-0.6992,-0.6972,-0.6947,-0.6943,-0.6938,-0.6937,-0.6936,-0.6937,-0.6955,-0.6941,-0.6941,-0.6941,-0.6941,-0.6941,0,-0.733,-0.731,-0.7285,-0.725,-0.7229,-0.7217,-0.7188,-0.7171,-0.7145,-0.7117,-0.7092,-0.7057,-0.7027,-0.6996,-0.6965,-0.6951,-0.6942,-0.6943,-0.6943,-0.6939,-0.6943,-0.6949,-0.695,-0.695,-0.695,-0.695,-0.695,-0.695,-0.7324,-0.7298,-0.7282,-0.7244,-0.7224,-0.7195,-0.7179,-0.7157,-0.7135,-0.7098,-0.7073,-0.7054,-0.7025,-0.6991,-0.6963,-0.6954,-0.6943,-0.6946,-0.6935,-0.6939,-0.6939,-0.6938,-0.6944,-0.6944,-0.6944,-0.6933,-0.6933,-0.6933]}]]